This demonstration page uses our WeatherBlox Daily Observations layout. Learn more.

39.92423, -83.80882

Hourly Observations for May 21, 2017

Temp ( °F °C ) Dew Point ( °F °C ) Humidity (%) Winds ( mph kmh ) Pressure ( in mb ) Visibility ( mi km ) Precip ( " mm )
12:56 am 00:56 Mostly Cloudy 66 18.9 63 17.2 90 90 SSE 9 15 30.01 1016 10 16.0934 0 0.0254
1:56 am 01:56 Cloudy 65 18.3 63 17.2 93 93 SE 5 7 30.01 1016 10 16.0934 0 0
2:56 am 02:56 Cloudy 64 17.8 63 17.2 96 96 Calm 30 1016 10 16.0934 0 0
3:56 am 03:56 Partly Cloudy 65 18.3 63 17.2 93 93 S 7 11 30.01 1016 10 16.0934 0 0
4:56 am 04:56 Cloudy with Light Rain 65 18.3 63 17.2 93 93 SW 7 11 30 1016 10 16.0934 0 0.0254
5:56 am 05:56 Mostly Cloudy with Light Rain 65 18.3 63 17.2 93 93 SW 7 11 29.99 1016 10 16.0934 0.04 1.016
6:56 am 06:56 Cloudy with Light Rain 65 18.3 63 17.2 93 93 SSW 10 17 30.02 1017 10 16.0934 0.01 0.254
7:13 am 07:13 Cloudy with Rain 64 18 63 17 94 94 SSW 8 13 30 1016 10 16.0934 0.02 0.508
7:21 am 07:21 Cloudy with Rain 64 18 63 17 94 94 SSW 12 19 30 1016 10 16.0934 0.03 0.762
7:31 am 07:31 Cloudy with Heavy Rain 64 18 63 17 94 94 SSW 9 15 30 1016 5 8.0467 0.14 3.556
7:43 am 07:43 Cloudy with Rain 64 18 63 17 94 94 SSW 6 9 30 1016 9 14.48406 0.16 4.064
7:56 am 07:56 Cloudy with Rain 65 18.3 63 17.2 93 93 SSW 7 11 30.03 1017 10 16.0934 0.18 4.572
8:56 am 08:56 Cloudy 66 18.9 64 17.8 93 93 SSW 7 11 30.03 1017 10 16.0934 0.02 0.508
9:56 am 09:56 Cloudy 67 19.4 65 18.3 93 93 SSW 10 17 30.03 1017 10 16.0934 0 0
10:56 am 10:56 Mostly Cloudy 69 20.6 65 18.3 87 87 SSW 8 13 30.02 1017 10 16.0934 0 0
11:19 am 11:19 Mostly Cloudy 70 21 64 18 83 83 SSW 9 15 30 1016 10 16.0934 0 0
11:56 am 11:56 Cloudy 70 21.1 65 18.3 84 84 SSW 10 17 30.02 1017 10 16.0934 0 0
12:56 pm 12:56 Cloudy 70 21.1 64 17.8 82 82 SSW 10 17 30.01 1016 10 16.0934 0 0
1:56 pm 13:56 Cloudy 70 21.1 65 18.3 84 84 SSW 9 15 30 1016 10 16.0934 0 0
2:56 pm 14:56 Cloudy 72 22.2 66 18.9 82 82 SSW 12 19 30 1016 10 16.0934 0 0
3:14 pm 15:14 Cloudy 72 22 66 19 83 83 SSW 10 17 29.97 1015 10 16.0934 0 0
3:49 pm 15:49 Mostly Cloudy 73 23 66 19 78 78 SSW 9 15 29.97 1015 10 16.0934 0 0
3:56 pm 15:56 Mostly Cloudy 74 23.3 67 19.4 79 79 SSW 10 17 29.97 1015 10 16.0934 0 0
4:44 pm 16:44 Mostly Cloudy 75 24 66 19 74 74 SSW 10 17 29.94 1014 10 16.0934 0 0
4:56 pm 16:56 Mostly Cloudy 75 23.9 66 18.9 74 74 SSW 10 17 29.96 1014 10 16.0934 0 0
5:56 pm 17:56 Cloudy with Heavy Rain 70 21.1 66 18.9 87 87 SW 21 33 29.95 1014 6 9.65604 0.09 2.286
6:56 pm 18:56 Mostly Cloudy 71 21.7 65 18.3 81 81 SSW 8 13 29.95 1014 10 16.0934 0.02 0.508
7:56 pm 19:56 Mostly Sunny 72 22.2 65 18.3 79 79 SW 7 11 29.94 1014 10 16.0934 0 0
8:56 pm 20:56 Clear 69 20.6 66 18.9 90 90 SSW 3 6 29.96 1014 10 16.0934 0 0
9:56 pm 21:56 Mostly Cloudy 68 20 66 18.9 93 93 SSW 5 7 29.98 1015 10 16.0934 0 0
10:56 pm 22:56 Mostly Cloudy 67 19.4 62 16.7 84 84 WSW 9 15 30 1016 10 16.0934 0 0
11:56 pm 23:56 Clear 64 17.8 56 13.3 75 75 WNW 9 15 30.01 1016 10 16.0934 0 0

Powered by AerisWeather